Location: Wald
(31.7579°N, 86.6655°W)
Time: 12:26:46
(UTC+00:00)

Cosmos 1844 - Pass Details

Date: 14 July 2020
Orbit: 822 x 868 km, 70.9° (Epoch: 08 August)

Event Time Altitude Azimuth Distance (km) Brightness Sun altitude
Rises 01:16:22 0° 346° (NNW) 3,439 7.6 -5.1°
Reaches altitude 10° 01:18:57 10° 353° (N) 2,493 6.7 -5.6°
Maximum altitude 01:24:27 47° 66° (ENE) 1,115 4.1 -6.6°
Drops below altitude 10° 01:29:51 10° 140° (SE) 2,451 5.5 -7.6°
Enters shadow 01:30:30 - 142° (SE) 2,684 5.7 -7.7°
